Location: Bannatyne
(13.0833°N, 59.5333°W)
Time: 00:31:00
(UTC+00:00)

Transit 2A - Pass Details

Date: 03 February 2020
Orbit: 600 x 959 km, 66.7° (Epoch: 24 February)

Event Time Altitude Azimuth Distance (km) Brightness Sun altitude
Rises 21:02:25 0° 222° (SW) 3,033 10.3 12.4°
Reaches altitude 10° 21:05:05 10° 234° (SW) 2,065 10.2 11.8°
Maximum altitude 21:08:59 27° 292° (WNW) 1,208 7.9 10.9°
Drops below altitude 10° 21:12:43 10° 351° (N) 1,956 8.1 10.0°
Sets 21:15:11 0° 3° (N) 2,842 8.7 9.5°
